www.pogodaiklimat.ru
ПОГОДА в Джиллетте
Время
и дата
10:50 29.01
10:53 29.01
11:00 29.01
11:08 29.01
11:15 29.01
11:30 29.01
11:46 29.01
11:53 29.01
12:05 29.01
12:25 29.01
12:53 29.01
13:00 29.01
13:13 29.01
13:53 29.01
14:12 29.01
14:37 29.01
14:53 29.01
15:15 29.01
15:48 29.01
15:53 29.01
16:53 29.01
17:53 29.01
18:53 29.01
19:53 29.01
20:53 29.01
21:53 29.01
22:53 29.01
23:53 29.01
00:53 30.01
01:53 30.01
02:53 30.01
03:53 30.01
04:53 30.01
05:53 30.01
06:53 30.01
07:53 30.01
08:53 30.01
09:53 30.01
10:53 30.01
11:53 30.01
12:53 30.01
13:53 30.01
14:53 30.01
15:53 30.01
16:53 30.01
17:53 30.01
18:53 30.01
19:53 30.01
Ветер
(напр.,м/с)
Видим. Явления Облачность Т
(С)
Тd
(С)
f
(%)
Тe
(С)
Тes
(С)
Комфортность P
(гПа)
Po
(гПа)
Тmin
(С)
Tmax
(С)
R
(мм)
R24
(мм)
S
(см)
СЗ 6 5 км мгла 10/10 660 м -20.0 -24.0 70 -31 -31 опасность
обморожения
872.1
СЗ 6 6 км мгла 10/10 660 м -20.0 -23.9 71 -31 -31 опасность
обморожения
1033.8 872.1 -25.0 -19.4
СЗ 6 8 км мгла 10/10 660 м -19.4 -23.9 67 -30 -30 872.1
СЗ 5 5 км мгла 10/10 660 м -19.4 -23.9 67 -29 -29 872.1
СЗ 6 3 км мгла 10/10 660 м -19.4 -23.9 67 -30 -30 872.1
С 8
{10}
2 км мгла 10/10 690 м -19.4 -23.9 67 -32 -32 опасность
обморожения
872.1
С 8 5 км мгла 10/10 780 м -19.4 -23.9 67 -32 -32 опасность
обморожения
871.8
С 7 6 км мгла 10/10 780 м -19.4 -24.4 64 -31 -31 опасность
обморожения
1033.4 871.8
СЗ 5 6 км мгла 10/10 720 м -19.4 -23.9 67 -29 -29 871.8
СЗ 6 11 км 10/10 720 м -19.4 -24.4 64 -30 -30 871.5
СЗ 7 5 км мгла 10/10 690 м -19.4 -23.9 67 -31 -31 опасность
обморожения
1033.0 871.2
СЗ 6 5 км мгла 10/10 720 м -19.4 -23.9 67 -30 -30 871.2
СЗ 6 11 км 10/10 840 м -19.4 -23.9 67 -30 -30 870.9
СЗ 5 14 км 10/10 780 м -19.4 -24.4 64 -29 -29 1033.2 870.9
СЗ 6 4 км мгла 10/10 780 м -19.4 -23.9 67 -30 -30 870.6
СЗ 5 6 км мгла 10/10 810 м -18.9 -23.9 65 -29 -29 870.9
СЗ 7 14 км 10/10 810 м -18.9 -23.9 65 -30 -30 1034.0 871.2
СЗ 6 8 км мгла 8/8 630 м -19.4 -24.4 64 -30 -30 871.2
СЗ 4 4 км слабый снег 10/10 900 m
[Ns]
-19.0 -24.0 65 -28 -28 871.2
СЗ 4 6 км слабый снег 10/10 900 m
[Ns]
-19.4 -24.4 64 -28 -28 1034.0 871.2
З 4 16 км ясно -21.7 -25.0 75 -31 -31 опасность
обморожения
1034.4 871.2 -21.7 -18.9
З 4 16 км ясно -24.4 -27.8 73 -34 -34 опасность
обморожения
1035.2 871.5
З 4 16 км ясно -25.6 -28.3 78 -36 -36 опасность
обморожения
1035.4 871.5
З 4 16 км ясно -26.7 -28.9 82 -37 -37 опасность
обморожения
1035.8 871.5
З 5 16 км ясно -26.1 -28.9 77 -38 -38 опасность
обморожения
1035.1 871.5
З 4 16 км ясно -26.7 -28.9 82 -37 -37 опасность
обморожения
1034.9 871.5
З 3 16 км ясно -26.7 -30.0 74 -36 -36 опасность
обморожения
1034.7 871.2 -27.2 -21.7
ЮЗ 3 16 км ясно -27.8 -30.6 77 -37 -37 опасность
обморожения
1034.0 870.6
Ю 2 16 км ясно -26.1 -28.9 77 -33 -33 опасность
обморожения
1033.2 870.3
Ю 3 16 км ясно -26.1 -28.9 77 -35 -35 опасность
обморожения
1032.5 869.8
Ю 4 16 км ясно -26.7 -30.0 74 -37 -37 опасность
обморожения
1031.8 869.2
Ю 3 16 км ясно -25.6 -29.4 70 -34 -34 опасность
обморожения
1031.1 868.6
Ю 4 16 км ясно -25.6 -29.4 70 -36 -36 опасность
обморожения
1031.2 868.3 -28.3 -25.0
Ю 3 16 км ясно -25.6 -28.9 74 -34 -34 опасность
обморожения
1032.1 868.6
ЮЗ 2 16 км ясно -25.6 -29.4 70 -32 -32 опасность
обморожения
1032.4 868.6
штиль 0 16 км ясно -23.3 -27.8 66 -23 -23 1032.2 868.6
Ю 2 16 км ясно -22.2 -27.2 64 -28 -28 1031.8 868.9
ЮЗ 3 16 км ясно -21.1 -25.6 67 -29 -28 1032.0 868.9
З 7 16 км ясно -18.3 -25.0 56 -30 -29 1031.0 868.6 -26.7 -18.3
ЮЗ 6 16 км ясно -17.2 -25.0 51 -27 -26 1030.7 868.6
ЮЗ 7 16 км ясно -16.7 -24.4 51 -27 -26 1029.5 867.8
ЮЗ 7 16 км ясно -15.6 -23.9 49 -26 -25 1028.5 867.2
З 6 16 км ясно -14.4 -23.9 44 -24 -23 1028.7 867.5
ЮЗ 5 16 км ясно -15.6 -24.4 47 -25 -24 1028.6 867.5
ЮЗ 7 16 км ясно -17.2 -23.9 56 -28 -28 1029.5 867.8 -18.3 -14.4
ЮЗ 6 16 км ясно -16.7 -24.4 51 -27 -27 1029.7 868.0
ЮЗ 6 16 км ясно -17.2 -24.4 53 -27 -27 1029.8 868.0
ЮЗ 7 16 км ясно -17.2 -24.4 53 -28 -28 1029.2 868.0
Местоположение метеостанции Gillette-Campbell County Airport: широта 44.3394 долгота -105.5419 высота над уровнем моря 1330 м.
В архиве по умолчанию представлена погода в Джиллетте за последние 1-2 суток. Обновление информации о фактической погоде в базе происходит ежечасно! Архивные данные за месяц целиком и за предыдущие месяцы Вы можете получить, выбрав интересующий диапазон дат из раскрывающегося списка и нажав кнопку "Ввод!".
Внимание! Архив погоды МЕТАР в базе сайта по станциям, не включенным в климатический монитор, хранится не более 60 дней. Нет смысла пытаться выбрать более раннюю дату.
*Определитесь, кто Вы:
Внимание! Время в таблицах - местное (без учета летнего времени). Для получения всемирного времени необходимо вычесть поправку, которая равна -7 ч.
Смотрите также архив погоды в соседних городах и на ближайших метеорологических станциях:
Партнеры нашего сайта:      
Пояснения к столбцам:
  • Ветер - указаны скорость ветра в м/с - средняя за 10 мин, порывы в срок и между сроками (в фигурных скобках) и направление, откуда дует ветер: С - северный,
  • СВ - северо-восточный, В - восточный, ЮВ - юго-восточный, Ю - южный, ЮЗ - юго-западный, З - западный, СЗ - северо-западный.
  • Видимость - горизонтальная дальность видимости в метрах или километрах. При видимости от 1 до 10 км при отсутствии осадков обычно наблюдается дымка, при ухудшении видимости до 1 км и менее - туман. В сухую погоду видимость может ухудшаться дымом, пылью или мглою.
  • Явления - указаны атмосферные явления, наблюдавшиеся в срок или в последний час перед сроком; фигурными скобками обозначены явления, наблюдавшиеся между сроками (за 1-3 часа до срока); квадратными скобками обозначены град или гололедные отложения с указанием их диаметра в мм.
  • Облачность - указаны через наклонную черту общая и нижняя облачность в баллах и высота нижней границы облаков в метрах; квадратными скобками обозначены формы облаков: Ci - перистые, Cs - перисто-слоистые, Cc - перисто-кучевые, Ac - высококучевые, As - высокослоистые, Sc - слоисто-кучевые, Ns - слоисто-дождевые, Cu - кучевые, Cb - кучево-дождевые. Подробнее классификацию облаков см. в Атласе облаков (PDF).
  • T - Температура воздуха - температура, измеренная на высоте 2 м над землей.
  • Td - Температура точки росы - температура, при понижении до которой содержащийся в воздухе водяной пар достигнет насыщения.
  • f - Относительная влажность воздуха - влажноcть воздуха, измеренная на высоте 2 м над землей.
  • Te - Эффективная температура - температура, которую ощущает одетый по сезону человек в тени. Характеристика душности погоды. При расчете учитывается влияние влажности воздуха и скорости ветра на теплоощущения человека.
  • Tes - Эффективная температура на солнце - температура, которую ощущает человек, с поправкой на солнечный нагрев. Характеристика знойности погоды. Зависит от высоты солнца над горизонтом, облачности и скорости ветра. Ночью, в пасмурную погоду, а также при ветре 12 м/с и более поправка равна нулю.
  • P - Атмосферное давление - приведенное к уровню моря атмосферное давление.
  • Po - Атмосферное давление - измеренное на уровне метеостанции атмосферное давление.
  • Tmin - Минимальная температура - минимум температуры воздуха на высоте 2 м над землей.
  • Tmax - Максимальная температура - максимум температуры воздуха на высоте 2 м над землей.
  • R - Количество осадков - Количество выпавших осадков за период времени, мм. При наведении курсора мыши на число - период времени, за который выпало указанное количество осадков.
  • R24 - Количество осадков - Количество выпавших осадков за 24 часа, мм.
  • S - Снежный покров - Высота снежного покрова, см. При наведении курсора мыши на число - состояние снежного покрова и степень покрытия местности в баллах.